Dallas Redbird, TX

3:44 AM CDT on April 26, 2018 (GMT -0500)
Redbird

Weather History for KRBD - February, 2013

Change the Weather History Date:

Tuesday, February 12, 2013

  Actual Average Record
Temperature  
Mean Temperature 46 °F -  
Max Temperature 50 °F 57 °F 73 °F (2009)
Min Temperature 42 °F 39 °F 24 °F (2006)
Degree Days  
Heating Degree Days 19    
Moisture  
Dew Point 44 °F    
Average Humidity 88    
Maximum Humidity 93    
Minimum Humidity 77    
Precipitation  
Precipitation 0.35 in - - ()
Sea Level Pressure  
Sea Level Pressure 29.92 in    
Wind  
Wind Speed 8 mph (North)    
Max Wind Speed 17 mph    
Max Gust Speed 24 mph    
Visibility 7 miles    
Events Rain , Thunderstorm    
Averages and records for this station are not official NWS values.
T = Trace of Precipitation, MM = Missing Value Source: NWS Daily Summary

Daily Weather History Graph

Daily Weather History Graph

Search for Another Location

Airport or City:

Astronomy

Feb. 12, 2013 Rise Set
Actual Time 7:13 AM CST 6:10 PM CST
Civil Twilight 6:47 AM CST 6:36 PM CST
Nautical Twilight 6:18 AM CST 7:05 PM CST
Astronomical Twilight 5:50 AM CST 7:33 PM CST
Moon 8:22 AM CST (2/12) 8:59 PM CST (2/12)
Length of Visible Light 11h 48m
Length of Day
10h 57m
Waxing Crescent, 7% of the Moon is Illuminated
Feb 12
Waxing Crescent
Feb 17
First Quarter
Feb 25
Full
Mar 4
Last Quarter
Mar 11
New

Hourly Weather History & Observations

Time (CST) Temp. Windchill Dew Point Humidity Pressure Visibility Wind Dir Wind Speed Gust Speed Precip Events Conditions
12:53 AM 46.9 °F - 39.9 °F 77% 29.97 in 10.0 mi East 9.2 mph - N/A   Clear
1:53 AM 46.9 °F - 41.0 °F 80% 30.01 in 10.0 mi SE 4.6 mph - N/A   Overcast
2:53 AM 46.9 °F - 42.1 °F 83% 29.99 in 10.0 mi North 5.8 mph - 0.00 in   Mostly Cloudy
3:53 AM 46.9 °F - 43.0 °F 86% 29.96 in 8.0 mi ENE 4.6 mph - 0.01 in Rain Light Rain
4:03 AM 46.4 °F 41.9 °F 42.8 °F 87% 29.93 in 10.0 mi NE 9.2 mph - 0.00 in Rain Light Rain
4:53 AM 46.9 °F - 44.1 °F 90% 29.91 in 9.0 mi East 9.2 mph - 0.00 in Rain Light Rain
5:29 AM 46.4 °F 41.9 °F 44.6 °F 93% 29.89 in 10.0 mi East 9.2 mph - 0.02 in   Overcast
5:53 AM 46.9 °F - 44.1 °F 90% 29.90 in 5.0 mi East 9.2 mph - 0.03 in Rain Light Rain
6:07 AM 46.4 °F - 44.6 °F 93% 29.92 in 3.0 mi Calm Calm - 0.04 in Rain Rain
6:14 AM 46.4 °F 43.5 °F 44.6 °F 93% 29.91 in 2.0 mi NNE 5.8 mph - 0.11 in Rain Heavy Rain
6:21 AM 46.4 °F 42.4 °F 44.6 °F 93% 29.90 in 4.0 mi NE 8.1 mph - 0.12 in Rain Rain
6:30 AM 46.4 °F 41.9 °F 44.6 °F 93% 29.89 in 6.0 mi East 9.2 mph - 0.13 in Rain , Thunderstorm Light Rain
6:46 AM 46.4 °F 40.7 °F 44.6 °F 93% 29.89 in 2.5 mi East 12.7 mph - 0.22 in Rain , Thunderstorm Thunderstorms and Rain
6:53 AM 46.0 °F 41.0 °F 44.1 °F 93% 29.88 in 4.0 mi East 10.4 mph - 0.23 in Rain , Thunderstorm Thunderstorms and Rain
6:57 AM 46.4 °F 43.5 °F 44.6 °F 93% 29.90 in 4.0 mi NE 5.8 mph - 0.00 in Rain Light Rain
7:04 AM 46.4 °F 45.2 °F 44.6 °F 93% 29.89 in 6.0 mi North 3.5 mph - 0.00 in Rain Light Rain
7:53 AM 46.0 °F 41.0 °F 44.1 °F 93% 29.87 in 6.0 mi East 10.4 mph - 0.00 in   Overcast
8:29 AM 46.4 °F 42.4 °F 44.6 °F 93% 29.88 in 5.0 mi East 8.1 mph - 0.00 in Rain Light Rain
8:53 AM 46.9 °F - 45.0 °F 93% 29.90 in 5.0 mi ENE 8.1 mph - 0.01 in Rain Light Rain
9:02 AM 46.4 °F 42.9 °F 44.6 °F 93% 29.93 in 1.8 mi NW 6.9 mph - 0.02 in Rain Light Rain
9:20 AM 48.2 °F - 46.4 °F 93% 29.92 in 3.0 mi North 4.6 mph - 0.04 in Rain Light Rain
9:38 AM 48.2 °F - 46.4 °F 93% 29.93 in 1.8 mi Calm Calm - 0.05 in Rain Light Rain
9:53 AM 48.0 °F - 45.0 °F 89% 29.94 in 1.5 mi Calm Calm - 0.06 in Rain Light Rain
10:19 AM 48.2 °F - 46.4 °F 93% 29.93 in 2.0 mi Calm Calm - 0.01 in Rain Light Rain
10:33 AM 48.2 °F - 46.4 °F 93% 29.94 in 2.5 mi Calm Calm - 0.01 in Rain Light Rain
10:39 AM 48.2 °F - 46.4 °F 93% 29.94 in 3.0 mi North 3.5 mph - 0.01 in   Overcast
10:53 AM 48.9 °F - 46.0 °F 90% 29.93 in 4.0 mi NE 3.5 mph - 0.01 in   Overcast
11:53 AM 50.0 °F - 46.0 °F 86% 29.91 in 10.0 mi NE 4.6 mph - N/A   Overcast
12:53 PM 50.0 °F - 46.0 °F 86% 29.89 in 10.0 mi Calm Calm - N/A   Overcast
1:53 PM 50.0 °F - 46.0 °F 86% 29.87 in 4.0 mi NNW 4.6 mph - N/A   Overcast
2:53 PM 50.0 °F - 46.0 °F 86% 29.85 in 6.0 mi NNW 3.5 mph - N/A   Overcast
3:53 PM 48.9 °F - 45.0 °F 86% 29.87 in 6.0 mi NW 11.5 mph - N/A   Overcast
4:36 PM 48.2 °F - 44.6 °F 87% 29.87 in 8.0 mi NW 9.2 mph - N/A   Overcast
4:41 PM 48.2 °F - 44.6 °F 87% 29.87 in 9.0 mi NW 10.4 mph - N/A   Overcast
4:53 PM 50.0 °F - 45.0 °F 83% 29.87 in 10.0 mi NW 6.9 mph - N/A   Overcast
5:06 PM 48.2 °F - 44.6 °F 87% 29.87 in 10.0 mi NNW 9.2 mph - N/A   Overcast
5:18 PM 48.2 °F - 44.6 °F 87% 29.87 in 10.0 mi NW 10.4 mph - N/A   Overcast
5:53 PM 48.9 °F - 44.1 °F 83% 29.89 in 10.0 mi NW 8.1 mph - N/A   Overcast
6:21 PM 48.2 °F - 44.6 °F 87% 29.90 in 10.0 mi NW 9.2 mph - N/A   Overcast
6:43 PM 48.2 °F - 42.8 °F 82% 29.91 in 10.0 mi NW 12.7 mph - N/A   Overcast
6:53 PM 48.0 °F - 43.0 °F 83% 29.91 in 10.0 mi NW 10.4 mph - N/A   Overcast
7:06 PM 48.2 °F - 42.8 °F 82% 29.92 in 10.0 mi WNW 8.1 mph - N/A   Overcast
7:50 PM 46.4 °F 41.5 °F 42.8 °F 87% 29.94 in 10.0 mi NW 10.4 mph - N/A   Mostly Cloudy
7:53 PM 46.9 °F - 43.0 °F 86% 29.94 in 10.0 mi NW 10.4 mph - N/A   Mostly Cloudy
8:53 PM 46.0 °F 41.4 °F 42.1 °F 86% 29.96 in 10.0 mi NW 9.2 mph - N/A   Mostly Cloudy
9:18 PM 46.4 °F 41.5 °F 42.8 °F 87% 29.96 in 10.0 mi NW 10.4 mph - N/A   Mostly Cloudy
9:43 PM 46.4 °F 40.4 °F 42.8 °F 87% 29.96 in 10.0 mi NW 13.8 mph - N/A   Overcast
9:53 PM 46.9 °F - 43.0 °F 86% 29.97 in 10.0 mi NNW 15.0 mph 24.2 mph N/A   Overcast
10:36 PM 44.6 °F 37.2 °F 41.0 °F 87% 29.99 in 6.0 mi NW 17.3 mph - 0.00 in   Overcast
10:53 PM 43.0 °F 35.4 °F 39.9 °F 89% 30.01 in 8.0 mi NW 16.1 mph - 0.00 in   Overcast
11:40 PM 42.8 °F 35.1 °F 39.2 °F 87% 30.02 in 10.0 mi NW 16.1 mph - N/A   Overcast
11:53 PM 42.1 °F 33.9 °F 37.9 °F 85% 30.03 in 10.0 mi NW 17.3 mph - N/A   Overcast